CZ-6A DEB, 60674

Orbit data source: Space-Track

CZ-6A DEB, 60674 is space debris in LEO originally from a launch on Tue, 06 Aug 2024 UTC launched from the Taiyaun Space Center, China (TSC). Debris objects in space refer to the collection of defunct objects orbiting the Earth. Examples of debris include non-operational satellites, rocket bodies, and fragments generated from explosions, collisions, or faulty payload assembly.

Loading next visibility...
Identifier
60674, 2024-140CB
Orbit
LEO
Country
Flag of CNCN / PRC
Related business
Manufacturer
SAST
Mission
Spacecraft
Bus & Motor
Unknown
Mass
Unknown
Launch date (UTC)
2024-08-06 (2 years ago)
Launch vehicle
Unknown
Launch site
Taiyaun Space Center, China (TSC)
Object type
Payload
Rocket body
Debris
Shape & HBR
Unknown shape, 0.1 m
Radar Cross Section
Medium (>0.1 m² and <1 m²)

Expand to show TLE details & history
Last TLE update: 11 hours ago

TLE from 11 hours ago
0 CZ-6A DEB
1 60674U 24140CB  26118.66984132  .00000711  00000-0  12298-3 0  9995
2 60674  89.0037 276.0738 0147440  50.4462 310.9669 14.60115590 91529
Epoch: 2026-04-28T16:04Z
TLE epoch observation values (Epoch: 2026-04-28T16:04:34.290Z)
Latitude
0.00002°
Longitude
178.2891°
Altitude
628.434 km
Speed
7.58 km/s
True Right ascension
18h 24m 17s
True Declination
0° 00' 00"
Sunlit
Object was in full shadow at epoch
Visualization orbit readout
Latitude
Unknown
Longitude
Unknown
Altitude
Unknown
Speed
Unknown
Apparent Right ascension
Unknown
Apparent Declination
Unknown
Sunlit
N/A
Visualization observer readout
Local Sidereal Time
11:00:06
Azimuth
Unknown
Elevation
Unknown
Doppler factor
Unknown
Orbital elements
Apogee altitude
793.902 km
Perigee altitude
585.486 km
Semi-major axis
7,067.831 km
Eccentricity
0.01474
Inclination
89.0037°
RAAN
276.0738°
Arg. of periapsis
50.4462°
True anomaly
309.67566°
Mean anomaly
310.9669°
Eccentric anomaly
310.32284°
Mean motion
3.6527 °/min
Orbital period
98.56 mins
BSTAR
0.00012298
Loading maneuver chart data...
Computing Atmospheric mass density...
Loading historical data...
Loading historical data...
Loading historical data...
Loading historical data...
Loading historical data...
Loading historical data...
Loading historical data...

Documentation

Showing up to 5 results
|